Location: Unspecified
(0.0000°N, 0.0000°E)
Time: 16:54:35
(UTC+00:00)

Envisat - Visible Passes

Search period start: 17 January 2020 00:00
Search period end: 27 January 2020 00:00
Orbit: 764 x 766 km, 98.1° (Epoch: 17 January)

Date Brightness Start Highest point End Pass type
(mag) Time Alt. Az. Time Alt. Az. Time Alt. Az.
17 Jan 5.0 18:54:21 10° SSW 18:58:53 33° WSW 19:03:24 10° NW visible
19 Jan 6.5 05:12:39 10° E 05:14:28 12° ESE 05:16:17 10° SE visible
19 Jan 6.1 19:21:15 10° SW 19:24:16 16° WSW 19:27:19 10° WNW visible
20 Jan 4.3 18:42:48 10° S 18:47:38 45° WSW 18:52:27 10° NNW visible
21 Jan 5.7 05:35:44 10° NE 05:39:51 25° ESE 05:43:59 10° SSE visible
22 Jan 5.7 19:09:12 10° SSW 19:13:02 22° WSW 19:16:52 10° NW visible
23 Jan 3.7 18:31:22 10° S 18:36:22 62° WSW 18:41:22 10° NNW visible
24 Jan 6.0 05:25:08 10° ENE 05:28:36 19° ESE 05:32:05 10° SE visible
25 Jan 5.2 18:57:24 10° SSW 19:01:47 29° WSW 19:06:08 10° NW visible
